Showing default

COSMOS 2271, 23002

Orbit data source: Space-Track

COSMOS 2271, 23002 is a payload satellite owned by VKS (CIS) in LEO that was launched on Sat, 12 Feb 1994 UTC via a TSIKLON-3 launch vehicle from the Plesetsk Missile And Space Complex (PKMTR). Payload-class satellites include a variety of spacecraft equipped with specific instruments for various scientific and technological missions. These include communications satellites like Starlink; space stations such as the ISS; scientific satellites like the Hubble; Earth observation satellites from companies like Planet Labs, Umbra, and HawkEye 360; GPS; miniature CubeSats for education and research; and military/defense satellites.

Loading next visibility...
Identifier
23002, 1994-011D
Orbit
LEO
Last TLE update
13 hours ago
Origin
Manufacturer
NPO PM
Mission
Defense Communications
Bus & Motor
STRELA-3, Unknown motor
Mass
225 kg wet, 225 kg dry
Launch date (UTC)
1994-02-12 (31 years ago)
Launch vehicle
TSIKLON-3
Launch site
Plesetsk Missile And Space Complex (PKMTR)
Object type
Payload
Rocket body
Debris
Shape & HBR
Cyl, 1.6 m
Radar Cross Section
1.257 m², Medium (>0.1 m² and < 1m²)

Expand to show TLE details & history

TLE from 13 hours ago
0 COSMOS 2271
1 23002U 94011D   25129.25312055  .00000011  00000-0  13733-5 0  9998
2 23002  82.5677 196.0080 0007423  39.6847 320.4787 12.63508773440473
Epoch: 2025-05-09T06:04Z
Definitive object data (Epoch: 2025-05-09T06:04:29.615Z)
Latitude
Longitude
-122.42731°
Altitude
1,406.769 km
Speed
7.159 km/s
True Right ascension
13h 04m 01s
True Declination
0° 00' 00"
Sunlit
Object was in full shadow at TLE epoch
Visualization TLE readout
Latitude
-58.30961°
Longitude
69.37225°
Altitude
1,436.417 km
Speed
7.14 km/s
Apparent Right ascension
18h 15m 48s
Apparent Declination
-82° 09' 14"
Sunlit
Object is in daylight
Visualization observer readout
Local Sidereal Time
02:55:07
Azimuth
188.473° SSW
Elevation
-44.646°
Doppler factor
1
Orbital elements
Apogee altitude
1,411.593 km
Perigee altitude
1,400.037 km
Semi-major axis
7,783.952 km
Eccentricity
0.0007423
Inclination
82.5677°
RAAN
196.008°
Arg. of periapsis
39.6847°
True anomaly
320.42453°
Mean anomaly
320.4787°
Eccentric anomaly
320.45162°
Mean motion
3.16041 °/min
BSTAR
0.0000013733
Orbital period
113.91 mins
Loading maneuver chart data...
Loading SW <> Apogee altitude chart data...
Loading historical data...
Loading historical data...
Loading historical data...
Loading historical data...
Loading historical data...
Loading historical data...
Loading historical data...

COSMOS 2271 Visibility forecast

Observer location: undefined°, undefined°

Span
Click to sort rows by Start time (UTC) header in descending order
Start Az.
Max El. time (UTC)
Max El. Az.
Max El.
End time (UTC)
End Az.
6 mins2025-05-10 03:09:16.268Z96.667° ESE2025-05-10 03:12:16.268Z73.837° E13.426°2025-05-10 03:15:16.268Z51.614° ENE
15 mins2025-05-10 04:58:16.268Z179.985° S2025-05-10 05:05:16.268Z115.395° SE44.6°2025-05-10 05:13:16.268Z9.883° NNE
9 mins2025-05-10 06:57:16.268Z260.747° W2025-05-10 07:01:16.268Z294.443° NW19.03°2025-05-10 07:06:16.268Z335.011° NNW
13 mins2025-05-10 15:00:16.268Z16.52° NNE2025-05-10 15:06:16.268Z73.583° E28.138°2025-05-10 15:13:16.268Z131.823° SE
13 mins2025-05-10 16:55:16.268Z337.668° N2025-05-10 17:01:16.268Z269.506° W38.243°2025-05-10 17:08:16.268Z199.486° SSW
|